Regional Weather Roundup
Issued by NWS Upton, NY

Current Version | Previous Version | Graphics & Text | Print | Product List | Glossary Off
Versions: 1 2 3 4 5 6 7 8 9 10 11 12 13 14 15 16 17 18 19 20 21 22 23 24 25 26 27 28 29 30 31 32 33 34 35 36 37 38 39 40 41 42 43 44 45 46 47 48 49 50

000
ASUS41 KOKX 281405
RWROKX

REGIONAL WEATHER ROUNDUP
NATIONAL WEATHER SERVICE NEW YORK NY
1000 AM EDT THU AUG 28 2014

NOTE: "FAIR" INDICATES FEW OR NO CLOUDS BELOW 12,000 FEET WITH NO
SIGNIFICANT WEATHER AND/OR OBSTRUCTIONS TO VISIBILITY.

NYZ071-072-176-178-NJZ106-104-281500-
NEW YORK CITY METRO AREA


CITY           SKY/WX    TMP DP  RH WIND       PRES   REMARKS
CENTRAL PARK   SUNNY     72  54  53 VRB5      29.94S
LAGUARDIA APRT MOSUNNY   73  55  53 NW12      29.90F
KENNEDY INTL   MOSUNNY   76  56  49 N16G23    29.91S
NEWARK/LIBERTY MOSUNNY   74  55  51 NW13      29.91F
BRNX BOT. GARD   N/A     72  54  53 N5        29.92F
TETERBORO      SUNNY     73  55  53 NW10      29.90S
$$

NYZ177-179-078>081-281500-
LONG ISLAND NEW YORK

CITY           SKY/WX    TMP DP  RH WIND       PRES   REMARKS
FARMINGDALE    SUNNY     72  58  61 N16G25    29.89F
ISLIP          MOSUNNY   75  60  59 NW16      29.86F
SHIRLEY        SUNNY     74  61  63 N14       29.88S
WESTHAMPTON    MOSUNNY   75  60  59 N14       29.88R
MONTAUK POINT    N/A     74  62  66 N7        29.85R
$$

NYZ052-065-067-281500-
HUDSON VALLEY

CITY           SKY/WX    TMP DP  RH WIND       PRES   REMARKS
WHITE PLAINS   MOSUNNY   72  56  57 NW14      29.91S
NEWBURGH       SUNNY     68  57  68 NW7       29.94S
MONTGOMERY     SUNNY     74  55  51 N13       29.93S
POUGHKEEPSIE   MOSUNNY   72  58  61 NE5       29.91S
ALBANY         MOSUNNY   70  59  68 NW15      29.92S
$$

NJZ001-105-106-008-010-013-015-019>022-104-281500-
NEW JERSEY

CITY           SKY/WX    TMP DP  RH WIND       PRES   REMARKS
NEWARK/LIBERTY MOSUNNY   74  55  51 NW13      29.91F
TETERBORO      SUNNY     73  55  53 NW10      29.90S
CALDWELL       SUNNY     71  54  54 N9        29.93S
MORRISTOWN     SUNNY     70  55  60 N10G18    29.94S
SOMERVILLE     SUNNY     72  54  53 NW10      29.93S
LINDEN         FAIR      77  58  53 NW9       29.94S
SUSSEX         PTSUNNY   70  56  61 NW9       29.96R
ANDOVER          N/A     67  54  63 NW6       29.97S
TRENTON        SUNNY     72  54  53 N12       29.93F
MILLVILLE      SUNNY     76  58  53 NW9       29.94R
ATLANTIC CITY  SUNNY     75  58  55 N13       29.92R
WRIGHTSTOWN    SUNNY     73  57  57 NW10      29.91R
TOMS RIVER     SUNNY     73  55  53 N12       29.92R
BELMAR         SUNNY     73  55  53 NW15      29.91F
$$

PAZ047>061-062-071-281500-
EASTERN PENNSYLVANIA

CITY           SKY/WX    TMP DP  RH WIND       PRES   REMARKS
PHILADELPHIA   MOSUNNY   74  54  49 NW14      29.95S
ALLENTOWN      SUNNY     69  52  54 NW15G21   29.98R
SCRANTON       PTSUNNY   63  51  65 N13G18    30.03R
$$

CTZ002-004>006-009-010-012-RIZ004-006-007-MAZ004-011-015-281500-
SOUTHERN NEW ENGLAND
 IN CT

CITY           SKY/WX    TMP DP  RH WIND       PRES   REMARKS
BRADLEY INTL   MOSUNNY   75  59  57 N9        29.87S
HARTFORD       SUNNY     74  58  57 N12       29.87S
DANBURY        SUNNY     71  59  65 N9        29.92S
WTRBRY/OXFORD  MOSUNNY   70  57  64 NE14      29.93R
BRIDGEPORT     SUNNY     74  61  63 NW15G22   29.88S
MERIDEN        SUNNY     74  59  59 NW10      29.88S
NEW HAVEN      MOSUNNY   76  61  59 NW9G20    29.87S
CHESTER        FAIR      72  61  68 N10       29.88S
GROTON         MOSUNNY   75  61  61 N17G23    29.83S
WILLIMANTIC    SUNNY     74  59  59 N13G22    29.86F

 IN RI

CITY           SKY/WX    TMP DP  RH WIND       PRES   REMARKS
PROVIDENCE     PTSUNNY   75  57  53 N15G26    29.84R
BLOCK ISLAND   MOSUNNY   75  61  60 N12       29.83S
WESTERLY       SUNNY     77  57  50 N15G25    29.84S

 IN MA

CITY           SKY/WX    TMP DP  RH WIND       PRES   REMARKS
BOSTON         MOSUNNY   77  56  48 N9        29.83S
WORCESTER      MOSUNNY   69  56  62 N10       29.89S
WESTFIELD      MOSUNNY   72  58  61 N12       29.88S
PROVINCETOWN   SUNNY     72  63  73 N14G20    29.80S
NANTUCKET      SUNNY     75  63  66 N16G23    29.77R
$$

ANZ330-335-338-340-345-350-353-355-281500-
COASTAL MARINE OBSERVATIONS


STATION/POSITION TIME  SKY/WX   TEMP    WIND        PRES    VSBY  WAVE
                                AIR SEA DIR/SP/G                  HT/PER
                 (UTC)          (F)     (DEG/KT/KT) (MB)    (MI)  (FT/S)
NY HARB ENTRANCE NOT AVBL
4S FIRE IS       NOT AVBL
23SW MTP         1400                                 N/A           6/14
HUDSON CANYON    1400            72 73  340/ 17/ 23 1010.0          7/13
EXECUTION ROCKS  1400            71 74  320/  8/ 12   N/A
WESTERN LI SOUND 1400            70     360/ 10/ 14   N/A           1/ 2
CENTRAL LI SOUND 1300            70 73  330/ 12/ 14   N/A           1/ 3
EASTERN LI SOUND 1300            73 69  350/ 16/ 19   N/A
ROBBINS REEF     1400            70     360/  6/  8   N/A
$$


>>>>>>>>>>>>>>>>>>>>>>>>>>>> KEY <<<<<<<<<<<<<<<<<<<<<<<<<<<
>                                                          <
>     SKY/WX - SKY CONDITION/PRESENT WEATHER               <
>     TMP    - TEMPERATURE IN FAHRENHEIT                   <
>     DP     - DEWPOINT IN FAHRENHEIT                      <
>     RH     - RELATIVE HUMIDITY IN PERCENT                <
>     WIND   - DIRECTION AND SPEED IN MPH                  <
>     PRES   - MEAN SEA LEVEL PRESSURE IN INCHES OF HG     <
>     WCI    - WIND CHILL INDEX                            <
>     VSB    - VISIBILITY IN MILES                         <
>     HX     - HEAT INDEX                                  <
>     TC     - TEMPERATURE IN CELSIUS                      <
>     VRB    - VARIABLE WIND DIRECTION                     <
>                                                          <
>>>>>>>>>>>>>>>>>>>>>>>>>>>> KEY <<<<<<<<<<<<<<<<<<<<<<<<<<<





USA.gov is the U.S. government's official web portal to all federal, state and local government web resources and services.